Pagrindinis puslapis
METAR-TAF:

METAR-TAF

Oro uostai :

Maringá, Parana, Brazilija

platuma: 23-25S, ilguma: 051-57W, Aukštis: 542 m

Dabartinis oras

Ataskaita buvo paskelbta 1 valandą ir 51 minutes, ne 08:00 UTC
Vėjas 8 kt iš Šiaurės Rytų, svyruoja nuo Šiaurės/Šiaurės Rytų ir Rytų
Temperatūra 23°C
Drėgmė 61%
Slėgis 1010 hPa
Matomumas 10 km arba daugiau
nėra debesų žemiau 1500 m ir nėra kamuolinių lietaus debesų

METAR: SBMG 090800Z 04008KT 020V080 CAVOK 23/15 Q1010

Laikas: 06:51 (09:51 UTC)


TAF: trūkstamas

Orai ataskaitas ir orų prognozės (METAR, TAF).

turimą stotys yra geltonos ir raudonos taškus žemėlapyje.

Perkelti pele per norėdami pamatyti stoties vardą.

Tada spustelėkite, norėdami matyti oro stebėjimo ir prognozės.

Norėdami pakeisti žemėlapį: spustelėkite ant žalios mygtukų su juodo kryžiaus žemyn,; žalią mygtuką su brūkšneliu, jei norite nutolinti; arba žalių rodyklių gretimoms žemėlapius.


METAR-TAF: